• Em Portugal
  • Lista de países
  • Para 7 dias
  • Temperatura da água
  • Mapas de satélite
  • Mapa do tempo
  • Widgets de tempo
  • user-avatar
    Iniciar Sessão

    Previsão horária em Vilnius

    Hoje, 18 Agosto, Sábado

    Tempo Temperatura Precipitação Vento Pressão Humidade
    00:00 +19°C° 0 mm 1 m/s 752 mmHg 91%
    01:00 +18°C° 0 mm 1 m/s 752 mmHg 92%
    02:00 +18°C° 0 mm 1 m/s 752 mmHg 92%
    03:00 +18°C° 0 mm 1 m/s 752 mmHg 92%
    04:00 +18°C° 0 mm 1 m/s 752 mmHg 92%
    05:00 +18°C° 0 mm 1 m/s 752 mmHg 93%
    06:00 +19°C° 0 mm 1 m/s 752 mmHg 88%
    07:00 +21°C° 0 mm 1 m/s 752 mmHg 83%
    08:00 +22°C° 0 mm 1 m/s 752 mmHg 78%
    09:00 +24°C° 0,3 mm 1 m/s 752 mmHg 73%
    10:00 +25°C° 0,3 mm 1 m/s 752 mmHg 69%
    11:00 +27°C° 0,3 mm 1 m/s 752 mmHg 64%
    12:00 +27°C° 0,1 mm 1 m/s 752 mmHg 60%
    13:00 +28°C° 0,1 mm 1 m/s 752 mmHg 56%
    14:00 +29°C° 0,1 mm 1 m/s 751 mmHg 52%
    15:00 +28°C° 0,3 mm 1 m/s 751 mmHg 55%
    16:00 +28°C° 0,3 mm 1 m/s 751 mmHg 57%
    17:00 +27°C° 0,3 mm 1 m/s 751 mmHg 59%
    18:00 +26°C° 0,1 mm 1 m/s 751 mmHg 66%
    19:00 +24°C° 0,1 mm 1 m/s 751 mmHg 72%
    20:00 +22°C° 0,1 mm 1 m/s 751 mmHg 78%
    21:00 +21°C° 0 mm 1 m/s 751 mmHg 81%
    22:00 +21°C° 0 mm 1 m/s 751 mmHg 83%
    23:00 +20°C° 0 mm 1 m/s 751 mmHg 86%

    Amanhã, 19 Agosto, Domingo

    Tempo Temperatura Precipitação Vento Pressão Humidade
    00:00 +20°C° 0 mm 1 m/s 752 mmHg 88%
    01:00 +19°C° 0 mm 1 m/s 752 mmHg 91%
    02:00 +19°C° 0 mm 1 m/s 752 mmHg 93%
    03:00 +18°C° 0 mm 1 m/s 752 mmHg 94%
    04:00 +17°C° 0 mm 2 m/s 752 mmHg 95%
    05:00 +16°C° 0 mm 2 m/s 752 mmHg 97%
    06:00 +17°C° 0 mm 2 m/s 752 mmHg 92%
    07:00 +18°C° 0 mm 2 m/s 752 mmHg 87%
    08:00 +19°C° 0 mm 2 m/s 752 mmHg 82%
    09:00 +20°C° 0 mm 2 m/s 752 mmHg 74%
    10:00 +21°C° 0 mm 3 m/s 752 mmHg 66%
    11:00 +22°C° 0 mm 3 m/s 752 mmHg 58%
    12:00 +24°C° 0 mm 3 m/s 752 mmHg 56%
    13:00 +24°C° 0 mm 3 m/s 752 mmHg 55%
    14:00 +25°C° 0 mm 3 m/s 752 mmHg 53%
    15:00 +25°C° 0 mm 3 m/s 752 mmHg 58%
    16:00 +24°C° 0 mm 3 m/s 751 mmHg 62%
    17:00 +24°C° 0 mm 3 m/s 751 mmHg 66%
    18:00 +23°C° 0 mm 2 m/s 751 mmHg 72%
    19:00 +20°C° 0 mm 2 m/s 751 mmHg 78%
    20:00 +20°C° 0 mm 1 m/s 752 mmHg 84%
    21:00 +19°C° 0 mm 1 m/s 752 mmHg 85%
    22:00 +19°C° 0 mm 1 m/s 752 mmHg 86%
    23:00 +18°C° 0 mm 1 m/s 752 mmHg 88%

    Depois de amanhã, 20 Agosto, Segunda-feira

    Tempo Temperatura Precipitação Vento Pressão Humidade
    00:00 +18°C° 0 mm 1 m/s 752 mmHg 89%
    01:00 +16°C° 0 mm 1 m/s 751 mmHg 91%
    02:00 +16°C° 0 mm 1 m/s 751 mmHg 92%
    03:00 +16°C° 0 mm 1 m/s 751 mmHg 93%
    04:00 +16°C° 0 mm 1 m/s 751 mmHg 93%
    05:00 +15°C° 0 mm 1 m/s 751 mmHg 93%
    06:00 +17°C° 0 mm 2 m/s 751 mmHg 89%
    07:00 +18°C° 0 mm 2 m/s 751 mmHg 85%
    08:00 +19°C° 0 mm 2 m/s 751 mmHg 81%
    09:00 +21°C° 0 mm 2 m/s 751 mmHg 75%
    10:00 +22°C° 0 mm 3 m/s 751 mmHg 69%
    11:00 +24°C° 0 mm 3 m/s 751 mmHg 64%
    12:00 +25°C° 0 mm 3 m/s 750 mmHg 62%
    13:00 +25°C° 0 mm 4 m/s 750 mmHg 61%
    14:00 +26°C° 0 mm 4 m/s 750 mmHg 59%
    15:00 +26°C° 0 mm 4 m/s 749 mmHg 62%
    16:00 +26°C° 0 mm 3 m/s 749 mmHg 64%
    17:00 +25°C° 0 mm 3 m/s 749 mmHg 66%
    18:00 +24°C° 0,4 mm 2 m/s 749 mmHg 73%
    19:00 +21°C° 0,4 mm 2 m/s 748 mmHg 79%
    20:00 +21°C° 0,4 mm 1 m/s 748 mmHg 85%
    21:00 +19°C° 0,4 mm 2 m/s 748 mmHg 87%
    22:00 +19°C° 0,4 mm 2 m/s 748 mmHg 89%
    23:00 +18°C° 0,4 mm 2 m/s 748 mmHg 91%

    21 Agosto, Terça-feira

    Tempo Temperatura Precipitação Vento Pressão Humidade
    00:00 +18°C° 0,4 mm 2 m/s 747 mmHg 91%
    01:00 +18°C° 0,4 mm 3 m/s 747 mmHg 91%
    02:00 +18°C° 0,4 mm 3 m/s 746 mmHg 92%
    03:00 +17°C° 0,2 mm 3 m/s 746 mmHg 92%
    04:00 +17°C° 0,2 mm 3 m/s 746 mmHg 93%
    05:00 +17°C° 0,2 mm 3 m/s 745 mmHg 93%
    06:00 +18°C° 0,4 mm 4 m/s 745 mmHg 92%
    07:00 +19°C° 0,4 mm 4 m/s 745 mmHg 91%
    08:00 +19°C° 0,4 mm 5 m/s 745 mmHg 89%
    09:00 +20°C° 0,1 mm 5 m/s 746 mmHg 88%
    10:00 +20°C° 0,1 mm 5 m/s 746 mmHg 86%
    11:00 +20°C° 0,1 mm 5 m/s 746 mmHg 84%
    12:00 +21°C° 0,3 mm 5 m/s 746 mmHg 80%
    13:00 +21°C° 0,3 mm 5 m/s 747 mmHg 75%
    14:00 +21°C° 0,3 mm 5 m/s 747 mmHg 71%
    15:00 +21°C° 0,1 mm 5 m/s 747 mmHg 70%
    16:00 +21°C° 0,1 mm 5 m/s 748 mmHg 69%
    17:00 +21°C° 0,1 mm 4 m/s 748 mmHg 68%
    18:00 +19°C° 0 mm 4 m/s 749 mmHg 74%
    19:00 +17°C° 0 mm 3 m/s 749 mmHg 80%
    20:00 +16°C° 0 mm 2 m/s 749 mmHg 87%
    21:00 +15°C° 0 mm 2 m/s 750 mmHg 87%
    22:00 +14°C° 0 mm 2 m/s 750 mmHg 87%
    23:00 +13°C° 0 mm 2 m/s 751 mmHg 88%

    22 Agosto, Quarta-feira

    Tempo Temperatura Precipitação Vento Pressão Humidade
    00:00 +13°C° 0 mm 2 m/s 751 mmHg 88%
    01:00 +12°C° 0 mm 1 m/s 751 mmHg 88%
    02:00 +12°C° 0 mm 1 m/s 752 mmHg 88%
    03:00 +11°C° 0 mm 1 m/s 752 mmHg 90%
    04:00 +11°C° 0 mm 1 m/s 752 mmHg 91%
    05:00 +11°C° 0 mm 1 m/s 753 mmHg 92%
    06:00 +12°C° 0 mm 1 m/s 753 mmHg 86%
    07:00 +14°C° 0 mm 1 m/s 753 mmHg 79%
    08:00 +16°C° 0 mm 1 m/s 753 mmHg 73%
    09:00 +18°C° 0 mm 1 m/s 753 mmHg 67%
    10:00 +20°C° 0 mm 1 m/s 753 mmHg 61%
    11:00 +20°C° 0 mm 2 m/s 753 mmHg 55%
    12:00 +21°C° 0 mm 2 m/s 753 mmHg 54%
    13:00 +21°C° 0 mm 2 m/s 753 mmHg 53%
    14:00 +23°C° 0 mm 2 m/s 753 mmHg 52%
    15:00 +23°C° 0 mm 2 m/s 752 mmHg 55%
    16:00 +23°C° 0 mm 2 m/s 752 mmHg 57%
    17:00 +22°C° 0 mm 3 m/s 752 mmHg 59%
    18:00 +20°C° 0 mm 2 m/s 752 mmHg 65%
    19:00 +19°C° 0 mm 2 m/s 751 mmHg 71%
    20:00 +17°C° 0 mm 2 m/s 751 mmHg 77%
    21:00 +17°C° 0 mm 2 m/s 751 mmHg 78%
    22:00 +17°C° 0 mm 2 m/s 751 mmHg 78%
    23:00 +17°C° 0 mm 3 m/s 751 mmHg 79%

    23 Agosto, Quinta-feira

    Tempo Temperatura Precipitação Vento Pressão Humidade
    00:00 +17°C° 0,2 mm 3 m/s 751 mmHg 81%
    01:00 +17°C° 0,2 mm 3 m/s 751 mmHg 83%
    02:00 +17°C° 0,2 mm 3 m/s 750 mmHg 85%
    03:00 +17°C° 0 mm 3 m/s 750 mmHg 88%
    04:00 +16°C° 0 mm 3 m/s 750 mmHg 91%
    05:00 +16°C° 0 mm 3 m/s 750 mmHg 94%
    06:00 +17°C° 0 mm 3 m/s 750 mmHg 91%
    07:00 +18°C° 0 mm 3 m/s 750 mmHg 88%
    08:00 +19°C° 0 mm 3 m/s 750 mmHg 84%
    09:00 +20°C° 0 mm 3 m/s 750 mmHg 79%
    10:00 +21°C° 0 mm 4 m/s 750 mmHg 74%
    11:00 +23°C° 0 mm 4 m/s 750 mmHg 68%
    12:00 +23°C° 0,2 mm 4 m/s 750 mmHg 68%
    13:00 +25°C° 0,2 mm 4 m/s 750 mmHg 67%
    14:00 +25°C° 0,2 mm 4 m/s 750 mmHg 66%
    15:00 +23°C° 0,2 mm 4 m/s 749 mmHg 69%
    16:00 +24°C° 0,2 mm 3 m/s 749 mmHg 71%
    17:00 +24°C° 0,2 mm 3 m/s 749 mmHg 74%
    18:00 +21°C° 0 mm 2 m/s 749 mmHg 78%
    19:00 +20°C° 0 mm 2 m/s 749 mmHg 83%
    20:00 +19°C° 0 mm 1 m/s 749 mmHg 88%
    21:00 +19°C° 0 mm 1 m/s 750 mmHg 89%
    22:00 +18°C° 0 mm 1 m/s 750 mmHg 91%
    23:00 +16°C° 0 mm 1 m/s 750 mmHg 92%
    Mostrar mais